Location: Katrenip?du
(16.7934°N, 80.9546°E)
Time: 12:42:13
(UTC+00:00)

X-37B - Visible Passes

Search period start: 12 August 2022 00:00
Search period end: 22 August 2022 00:00
Orbit: 328 x 343 km, 45.0° (Epoch: 27 July)

Date Brightness Start Highest point End Pass type
(mag) Time Alt. Az. Time Alt. Az. Time Alt. Az.
17 Aug 1.5 13:44:13 10° S 13:46:33 23° SE 13:47:13 21° ESE visible
17 Aug 1.9 23:24:34 10° NNW 23:27:15 37° NE 23:29:58 10° ESE visible
18 Aug 1.0 14:04:10 10° WSW 14:06:54 53° NW 14:08:49 17° NNE visible
18 Aug 1.0 23:44:59 10° WNW 23:47:39 35° SW 23:50:19 10° SSE visible
19 Aug 3.6 14:26:09 10° WNW 14:27:25 12° NW 14:28:41 10° NNW visible
19 Aug 3.3 22:34:43 15° ESE 22:34:43 15° ESE 22:35:24 10° ESE visible
21 Aug 3.5 13:31:34 10° WNW 13:32:52 12° NW 13:34:09 10° NNW visible
